Torna al catalogo

STARLINK-35579

AttivoComunicazioniVLEO
NORAD 66562·PAYLOAD·🇺🇸 United States

Lanciato Nov 21, 2025 da Cape Canaveral Space Force Station

Loading…

Prossimi Passaggi (prossime 24 ore)

TLE

AggiornatoSource: CelesTrak SupGP

Epoca: Sep 14, 2026, 23:04 UTC

1 66562C 25268F   26257.96159722 -.00010211  00000+0 -36980-3 0  2573
2 66562  43.0041 358.1580 0001907 274.5676 185.6480 15.27586973    19

Traccia STARLINK-35579 in tempo reale con AllMySat

Download on the App Store